ARVAKER 2

operational
NORAD ID: 64567 Int'l Des: 2025-135 Owner: NSC Country: N
LEOCIRCULARRETROGRADESSO

Über ARVAKER 2

Beschreibung wird geladen...

Live-Position

3D-Globus wird geladen...

Nächste Überflüge

Höhenverlauf

Altitude vs Time

uPlot chart will show altitude changes over time

Zweizeiliger Elementsatz

1 64567U 25135AR 25340.89019402 .00004874 00000-0 48217-3 0 9999
2 64567 97.7613 92.5526 0000927 173.9990 186.1240 14.92333173 25182
Epoch: 6. Dez. 2025 • Age: 20 hours

Aktueller Status

Höhe 592.5 km
Geschwindigkeit 7.56 km/s
Subsatellitenpunkt 5.71°N, 64.38°W
Startdatum 23. Juni 2025
Alter 0.4 years
Typ other

Technische Details

Klassifizierung Payload
Masse 100.00 kg
Trockenmasse 100.00 kg
Gesamtmasse 100.00 kg
Länge 0.40 m
Durchmesser 0.20 m
Spannweite 1.00 m
Form Box+2 pan
Hersteller NANAV
Bus-Typ MP42
Phasenstatus In Orbit
Besitzer/Staat NSC/N

Große Konstellationen

Loading constellations...